| time (UTC) | temp F | wind direction | speed MPH | gust MPH | rain 1hr in | rain 24hr in | rain mn in | humidity % | barometer mb |
| 20260510173040 | 83 | 57 | 2.0 | 8.0 | 0.00 | 0.00 | 0.00 | 34 | 1015.9 |
| 20260510171548 | 82 | 0 | 1.0 | 7.0 | 0.00 | 0.00 | 0.00 | 37 | 1016.0 |
| 20260510170053 | 83 | 94 | 2.0 | 6.0 | 0.00 | 0.00 | 0.00 | 36 | 1016.0 |
| 20260510164543 | 82 | 24 | 3.0 | 8.0 | 0.00 | 0.00 | 0.00 | 37 | 1016.1 |
| 20260510163042 | 81 | 240 | 2.0 | 8.0 | 0.00 | 0.00 | 0.00 | 38 | 1016.2 |
| 20260510161540 | 81 | 57 | 4.0 | 11.0 | 0.00 | 0.00 | 0.00 | 34 | 1016.4 |
| 20260510160046 | 80 | 347 | 1.0 | 9.0 | 0.00 | 0.00 | 0.00 | 39 | 1016.5 |
| 20260510154547 | 79 | 321 | 1.0 | 7.0 | 0.00 | 0.00 | 0.00 | 38 | 1016.7 |
| 20260510153043 | 78 | 325 | 3.0 | 7.0 | 0.00 | 0.00 | 0.00 | 39 | 1016.8 |
| 20260510151543 | 77 | 339 | 0.0 | 4.0 | 0.00 | 0.00 | 0.00 | 52 | 1016.7 |
| 20260510150056 | 76 | 350 | 1.0 | 3.0 | 0.00 | 0.00 | 0.00 | 54 | 1016.6 |
| 20260510144551 | 75 | 312 | 1.0 | 4.0 | 0.00 | 0.00 | 0.00 | 58 | 1016.7 |
| 20260510143044 | 75 | 191 | 2.0 | 5.0 | 0.00 | 0.00 | 0.00 | 62 | 1016.5 |
| 20260510141535 | 73 | 293 | 1.0 | 6.0 | 0.00 | 0.00 | 0.00 | 66 | 1016.6 |
| 20260510140052 | 72 | 232 | 1.0 | 5.0 | 0.00 | 0.00 | 0.00 | 68 | 1016.6 |
| 20260510134544 | 71 | 225 | 1.0 | 4.0 | 0.00 | 0.00 | 0.00 | 73 | 1016.6 |
| 20260510133036 | 70 | 346 | 1.0 | 5.0 | 0.00 | 0.00 | 0.00 | 75 | 1016.6 |
| 20260510131536 | 68 | 273 | 2.0 | 6.0 | 0.00 | 0.00 | 0.00 | 81 | 1016.6 |
| 20260510130037 | 67 | 0 | 0.0 | 4.0 | 0.00 | 0.00 | 0.00 | 85 | 1016.5 |
| 20260510124553 | 65 | 0 | 0.0 | 0.0 | 0.00 | 0.00 | 0.00 | 90 | 1016.1 |
| 20260510123042 | 64 | 0 | 0.0 | 0.0 | 0.00 | 0.00 | 0.00 | 93 | 1016.1 |
| 20260510121540 | 63 | 0 | 0.0 | 0.0 | 0.00 | 0.00 | 0.00 | 95 | 1016.0 |
| 20260510120033 | 62 | 0 | 0.0 | 0.0 | 0.00 | 0.00 | 0.00 | 96 | 1015.9 |
| 20260510114544 | 61 | 0 | 0.0 | 0.0 | 0.00 | 0.00 | 0.00 | 96 | 1015.7 |
| 20260510113042 | 61 | 0 | 0.0 | 0.0 | 0.00 | 0.00 | 0.00 | 96 | 1015.5 |
| 20260510111543 | 61 | 0 | 0.0 | 0.0 | 0.00 | 0.00 | 0.00 | 96 | 1015.4 |
| 20260510110035 | 60 | 0 | 0.0 | 0.0 | 0.00 | 0.00 | 0.00 | 96 | 1015.1 |
| 20260510104543 | 60 | 0 | 0.0 | 0.0 | 0.00 | 0.00 | 0.00 | 95 | 1014.8 |
| 20260510103051 | 60 | 0 | 0.0 | 0.0 | 0.00 | 0.00 | 0.00 | 95 | 1014.6 |
| 20260510101545 | 60 | 0 | 0.0 | 0.0 | 0.00 | 0.00 | 0.00 | 95 | 1014.2 |
| 20260510100039 | 60 | 0 | 0.0 | 0.0 | 0.00 | 0.00 | 0.00 | 95 | 1013.9 |
| 20260510094544 | 60 | 0 | 0.0 | 0.0 | 0.00 | 0.00 | 0.00 | 94 | 1013.8 |
| 20260510093043 | 60 | 0 | 0.0 | 0.0 | 0.00 | 0.00 | 0.00 | 94 | 1013.7 |
| 20260510091543 | 61 | 0 | 0.0 | 0.0 | 0.00 | 0.00 | 0.00 | 93 | 1013.7 |
| 20260510090048 | 61 | 0 | 0.0 | 0.0 | 0.00 | 0.00 | 0.00 | 93 | 1013.5 |
| 20260510084543 | 61 | 0 | 0.0 | 3.0 | 0.00 | 0.00 | 0.00 | 93 | 1013.4 |
| 20260510083037 | 61 | 0 | 0.0 | 0.0 | 0.00 | 0.00 | 0.00 | 92 | 1013.3 |
| 20260510081539 | 61 | 0 | 0.0 | 0.0 | 0.00 | 0.00 | 0.00 | 92 | 1013.2 |
| 20260510080044 | 62 | 0 | 0.0 | 0.0 | 0.00 | 0.00 | 0.00 | 92 | 1013.2 |
| 20260510074543 | 62 | 0 | 0.0 | 0.0 | 0.00 | 0.00 | 0.00 | 92 | 1013.1 |
| 20260510073041 | 62 | 0 | 0.0 | 0.0 | 0.00 | 0.00 | 0.00 | 91 | 1013.0 |
| 20260510071538 | 62 | 0 | 0.0 | 2.0 | 0.00 | 0.00 | 0.00 | 91 | 1012.9 |
| 20260510070040 | 62 | 0 | 1.0 | 3.0 | 0.00 | 0.00 | 0.00 | 92 | 1013.0 |
| 20260510064543 | 62 | 0 | 0.0 | 0.0 | 0.00 | 0.00 | 0.00 | 91 | 1013.1 |
| 20260510063044 | 62 | 0 | 0.0 | 1.0 | 0.00 | 0.00 | 0.00 | 90 | 1012.9 |
| 20260510061542 | 63 | 0 | 0.0 | 0.0 | 0.00 | 0.00 | 0.00 | 90 | 1012.7 |
| 20260510060037 | 63 | 0 | 0.0 | 1.0 | 0.00 | 0.00 | 0.00 | 89 | 1012.9 |
| 20260510054557 | 63 | 0 | 0.0 | 0.0 | 0.00 | 0.00 | 0.00 | 90 | 1013.1 |
| 20260510053045 | 64 | 0 | 0.0 | 0.0 | 0.00 | 0.00 | 0.00 | 89 | 1013.2 |
| 20260510051543 | 64 | 0 | 0.0 | 0.0 | 0.00 | 0.00 | 0.00 | 89 | 1013.3 |
| 20260510050038 | 64 | 0 | 0.0 | 2.0 | 0.00 | 0.00 | 0.00 | 89 | 1013.3 |
| 20260510044542 | 64 | 0 | 0.0 | 3.0 | 0.00 | 0.00 | 0.00 | 88 | 1013.5 |
| 20260510043043 | 64 | 0 | 0.0 | 0.0 | 0.00 | 0.00 | 0.00 | 89 | 1013.4 |
| 20260510041600 | 65 | 0 | 0.0 | 0.0 | 0.00 | 0.00 | 0.00 | 88 | 1013.4 |
| 20260510040042 | 65 | 0 | 0.0 | 0.0 | 0.00 | 0.00 | 0.00 | 88 | 1013.4 |
| 20260510034542 | 65 | 0 | 0.0 | 0.0 | 0.00 | 0.00 | 0.00 | 87 | 1013.3 |
| 20260510033053 | 65 | 0 | 0.0 | 0.0 | 0.00 | 0.00 | 0.00 | 87 | 1013.3 |
| 20260510031551 | 65 | 0 | 0.0 | 0.0 | 0.00 | 0.00 | 0.00 | 86 | 1013.2 |
| 20260510030045 | 66 | 0 | 0.0 | 0.0 | 0.00 | 0.00 | 0.00 | 85 | 1013.1 |
| 20260510024551 | 66 | 0 | 0.0 | 0.0 | 0.00 | 0.00 | 0.00 | 84 | 1013.1 |
| 20260510023044 | 67 | 0 | 1.0 | 4.0 | 0.00 | 0.00 | 0.00 | 83 | 1013.0 |
| 20260510021543 | 67 | 211 | 2.0 | 5.0 | 0.00 | 0.00 | 0.00 | 83 | 1012.9 |
| 20260510020042 | 67 | 178 | 1.0 | 4.0 | 0.00 | 0.00 | 0.00 | 83 | 1013.0 |
| 20260510014542 | 67 | 0 | 0.0 | 3.0 | 0.00 | 0.00 | 0.00 | 83 | 1012.8 |
| 20260510013048 | 68 | 0 | 0.0 | 2.0 | 0.00 | 0.00 | 0.00 | 80 | 1012.4 |
| 20260510011543 | 70 | 0 | 0.0 | 4.0 | 0.00 | 0.00 | 0.00 | 77 | 1012.2 |
| 20260510010043 | 72 | 278 | 2.0 | 4.0 | 0.00 | 0.00 | 0.00 | 76 | 1012.0 |
| 20260510004547 | 72 | 322 | 2.0 | 4.0 | 0.00 | 0.00 | 0.00 | 74 | 1012.1 |
| 20260510003045 | 69 | 0 | 0.0 | 3.0 | 0.00 | 0.00 | 0.00 | 79 | 1012.1 |
| 20260510001543 | 70 | 0 | 0.0 | 3.0 | 0.00 | 0.00 | 0.00 | 77 | 1012.0 |
| 20260510000043 | 71 | 221 | 1.0 | 4.0 | 0.00 | 0.00 | 0.00 | 76 | 1011.8 |
| 20260509234542 | 71 | 199 | 1.0 | 3.0 | 0.00 | 0.00 | 0.00 | 75 | 1011.8 |
| 20260509233041 | 72 | 184 | 2.0 | 6.0 | 0.00 | 0.00 | 0.00 | 73 | 1011.4 |
| 20260509231536 | 73 | 241 | 2.0 | 7.0 | 0.00 | 0.00 | 0.00 | 71 | 1011.5 |
| 20260509230044 | 73 | 182 | 1.0 | 6.0 | 0.00 | 0.00 | 0.00 | 71 | 1011.2 |
| 20260509224541 | 74 | 219 | 2.0 | 9.0 | 0.00 | 0.00 | 0.00 | 69 | 1011.0 |
| 20260509223049 | 73 | 231 | 2.0 | 8.0 | 0.00 | 0.00 | 0.00 | 71 | 1011.2 |
| 20260509221538 | 73 | 225 | 2.0 | 8.0 | 0.00 | 0.00 | 0.00 | 71 | 1011.3 |
| 20260509220045 | 74 | 190 | 2.0 | 9.0 | 0.00 | 0.00 | 0.00 | 70 | 1011.2 |
| 20260509214542 | 74 | 234 | 2.0 | 8.0 | 0.00 | 0.00 | 0.00 | 70 | 1011.3 |
| 20260509213035 | 73 | 232 | 4.0 | 8.0 | 0.00 | 0.00 | 0.00 | 70 | 1011.3 |
| 20260509211548 | 74 | 203 | 5.0 | 10.0 | 0.00 | 0.00 | 0.00 | 68 | 1011.1 |
| 20260509210053 | 74 | 228 | 2.0 | 7.0 | 0.00 | 0.00 | 0.00 | 69 | 1011.1 |
| 20260509204542 | 72 | 219 | 3.0 | 8.0 | 0.00 | 0.00 | 0.00 | 70 | 1011.3 |
| 20260509203040 | 72 | 232 | 1.0 | 8.0 | 0.00 | 0.00 | 0.00 | 71 | 1011.2 |
| 20260509201548 | 72 | 243 | 2.0 | 8.0 | 0.00 | 0.00 | 0.00 | 72 | 1011.2 |
| 20260509200048 | 72 | 221 | 1.0 | 8.0 | 0.00 | 0.00 | 0.00 | 70 | 1011.2 |
| 20260509194543 | 72 | 214 | 3.0 | 8.0 | 0.00 | 0.00 | 0.00 | 70 | 1011.5 |
| 20260509193043 | 72 | 247 | 3.0 | 10.0 | 0.00 | 0.00 | 0.00 | 69 | 1011.6 |
| 20260509191542 | 72 | 211 | 3.0 | 10.0 | 0.00 | 0.00 | 0.00 | 68 | 1011.8 |
| 20260509190046 | 73 | 218 | 5.0 | 11.0 | 0.00 | 0.00 | 0.00 | 65 | 1011.8 |
| 20260509184538 | 76 | 236 | 5.0 | 11.0 | 0.00 | 0.00 | 0.00 | 59 | 1011.8 |
| 20260509183043 | 75 | 227 | 3.0 | 14.0 | 0.00 | 0.00 | 0.00 | 62 | 1011.8 |
| 20260509181543 | 75 | 221 | 3.0 | 11.0 | 0.00 | 0.00 | 0.00 | 61 | 1011.9 |
| 20260509180042 | 73 | 223 | 4.0 | 13.0 | 0.00 | 0.00 | 0.00 | 62 | 1012.2 |
| 20260509174541 | 74 | 202 | 3.0 | 8.0 | 0.00 | 0.00 | 0.00 | 57 | 1012.4 |